Location: USNO
(38.9242°N, 77.0663°W)
Time: 13:31:57
(UTC-04:00)

Vanguard 2 - Visible Passes

Search period start: 22 October 2017 00:00
Search period end: 01 November 2017 00:00
Orbit: 554 x 2939 km, 32.9° (Epoch: 21 October)

Date Brightness Start Highest point End Pass type
(mag) Time Alt. Az. Time Alt. Az. Time Alt. Az.
22 Oct 11.9 05:11:15 10° S 05:20:54 17° SE 05:29:37 10° ESE visible
23 Oct 11.7 05:26:28 10° S 05:38:52 24° SE 05:49:45 10° E visible
24 Oct 11.5 05:42:38 10° SSW 05:56:52 31° SSE 06:09:00 10° E visible
25 Oct 11.9 03:56:20 10° SSE 04:04:14 15° SE 04:11:58 10° ESE visible
25 Oct 11.3 05:59:24 10° SSW 06:14:53 38° SSE 06:27:49 10° E visible
26 Oct 11.7 04:10:44 10° S 04:22:02 21° SE 04:32:58 10° E visible
26 Oct 11.1 06:16:34 10° SW 06:32:57 45° SSE 06:46:22 10° E visible
27 Oct 11.5 04:26:32 10° SSW 04:39:50 28° SE 04:52:40 10° E visible
27 Oct 10.9 06:34:05 10° SW 06:51:04 53° SSE 07:04:45 10° E visible
28 Oct 11.8 02:44:25 10° SE 02:47:40 11° SE 02:50:58 10° ESE visible
28 Oct 11.3 04:43:02 10° SSW 04:57:42 35° SE 05:11:44 10° E visible
28 Oct 10.8 06:51:50 10° SW 07:09:14 59° SSE 07:23:02 10° E visible
29 Oct 11.6 02:59:12 14° SSE 03:05:17 17° SE 03:14:39 10° ESE visible
29 Oct 11.0 05:00:42 12° SSW 05:15:37 42° SSE 05:30:28 10° E visible
30 Oct 11.4 03:17:04 19° SSE 03:22:54 23° SE 03:35:05 10° E visible
30 Oct 10.9 05:18:33 13° SW 05:33:36 50° SSE 05:48:58 10° E visible
31 Oct 11.1 03:34:47 25° S 03:40:34 30° SE 03:54:33 10° E visible
31 Oct 10.7 05:36:16 14° SW 05:51:41 56° SSE 06:07:21 10° E visible
